Location: Freistadt
(48.5112°N, 14.5013°E)
Time: 00:07:25
(UTC+02:00)

O/OREOS (USA 219) - Pass Details

Date: 09 April 2023
Orbit: 621 x 646 km, 72.0° (Epoch: 22 May)

Event Time Altitude Azimuth Distance (km) Brightness Sun altitude
Exits shadow 03:54:22 51° 162° (SSE) 806 ? -22.7°
Maximum altitude 03:55:14 63° 112° (ESE) 716 ? -22.6°
Drops below altitude 10° 03:59:44 10° 32° (NNE) 2,026 ? -22.1°
Sets 04:02:01 0° 29° (NNE) 2,934 ? -21.8°
